• Join FlightAware (Why Join?)
  • Login
  • US Flag GB Flag 
20:55 EST


 

Airport Tracker/Info


-or-


 

Live Flight TrackerFlight Track Log ✈ DAL268 ✈ 19-Jul-2013 ✈ KJFK - LLBG / TLV

Flight Track Log - Related Links

Times and Time Zones

All times are in EDT time to prevent confusion due to time zone crossing. See the DAL268 flight status page for this flight to view local times or setup timezone preferences in your user account.

Time Position Orientation Groundspeed Altitude Reporting Facility
EDT Latitude Longitude Course Direction KTS MPH feet Rate Location/Type
23:57 40.6370 -73.7800 North  Level FlightAware
00:08 40.4940 -73.3487 114° Southeast  Level FlightAware Approximate
00:09 40.4478 -73.1783 119° Southeast  Level FlightAware Approximate
00:10 40.3833 -73.0161 90° East  Level FlightAware Approximate
00:11 40.4123 -72.8384 75° East  Level FlightAware Approximate
00:12 40.4458 -72.6627 66° East  Level FlightAware Approximate
00:12 40.6360 -73.7790 180° South 2 2  Level FlightAware
00:14 40.6350 -73.7780 143° Southeast 20 23 60 Level FlightAware
00:15 40.6340 -73.7800 237° Southwest 25 29 60 Level FlightAware
00:15 40.6350 -73.7830 294° West 26 30 60 Level FlightAware
00:16 40.6370 -73.7860 311° West 28 32 60 Level FlightAware
00:17 40.6380 -73.7880 303° West 27 31 60 Level FlightAware
00:17 40.6380 -73.7900 270° West 28 32 60 Level FlightAware
00:18 40.6400 -73.7930 311° West 29 33 60 Level FlightAware
00:19 40.6410 -73.7950 303° West 31 36 60 Level FlightAware
00:20 40.6420 -73.8000 285° West 23 26 60 Level FlightAware
00:21 40.6430 -73.8020 303° West 30 35 120 Level FlightAware
00:22 40.6460 -73.8070 308° West 29 33 120 Level FlightAware
00:24 40.6480 -73.8130 123° Southeast 27 31 120 Level FlightAware
00:25 40.8305 -73.4679 123° Southeast  Level Estimated
00:25 40.6510 -73.8120 14° North 27 31  Level FlightAware
00:25 40.6490 -73.8150 229° Southwest 11 13 240 Level FlightAware
00:27 40.6490 -73.8160 270° West 16 18 240 Level FlightAware
00:28 40.6480 -73.8160 180° South 2 2 540 Level FlightAware
00:29 40.6380 -73.7930 120° Southeast 175 201 660 Level FlightAware
00:29 40.6230 -73.7600 121° Southeast 198 228 1,200 2,100 Climbing FlightAware
00:30 40.6170 -73.7480 123° Southeast 198 228 1,600 1,320 Climbing FlightAware
00:30 40.5960 -73.7240 139° Southeast 233 268 2,100 1,200 Climbing FlightAware
00:30 40.5740 -73.6940 134° Southeast 260 299 2,700 1,200 Climbing FlightAware
00:31 40.5670 -73.6680 110° East 284 327 3,000 1,140 Climbing FlightAware
00:31 40.5660 -73.6510 94° East 299 344 3,200 1,560 Climbing FlightAware
00:31 40.5670 -73.6050 88° East 314 361 4,100 1,980 Climbing FlightAware
00:32 40.5690 -73.5670 86° East 316 364 5,000 3,000 Climbing FlightAware
00:32 40.5723 -73.5176 85° East 327 376 6,000 3,780 Climbing FlightAware ADS-B
00:32 40.5726 -73.5098 87° East 327 376 6,200 3,000 Climbing FlightAware ADS-B
00:32 40.5723 -73.4977 92° East 327 376 6,500 2,700 Climbing FlightAware ADS-B
00:32 40.5713 -73.4879 98° East 327 376 6,700 2,400 Climbing FlightAware ADS-B
00:32 40.5696 -73.4783 103° East 327 376 6,900 2,220 Climbing FlightAware ADS-B
00:32 40.5680 -73.4725 110° East 327 376 7,000 2,640 Climbing FlightAware ADS-B
00:33 40.5652 -73.4614 108° East 327 376 7,300 2,520 Climbing FlightAware ADS-B
00:33 40.5566 -73.4337 112° Southeast 328 377 7,900 2,520 Climbing FlightAware ADS-B
00:33 40.5499 -73.4133 113° Southeast 331 381 8,400 2,580 Climbing FlightAware ADS-B
00:33 40.5469 -73.4041 113° Southeast 332 382 8,600 2,700 Climbing FlightAware ADS-B
00:33 40.5365 -73.3771 117° Southeast 333 383 9,300 2,700 Climbing FlightAware ADS-B
00:34 40.5246 -73.3483 119° Southeast 336 387 10,000 2,040 Climbing FlightAware ADS-B
00:34 40.5027 -73.2905 116° Southeast 353 406 10,900 1,440 Climbing FlightAware ADS-B
00:35 40.4795 -73.2302 117° Southeast 381 438 11,500 1,200 Climbing FlightAware ADS-B
00:35 40.4684 -73.1983 115° Southeast 393 452 11,800 1,020 Climbing FlightAware ADS-B
00:35 40.4636 -73.1797 109° East 403 464 11,900 840 Climbing FlightAware ADS-B
00:35 40.4611 -73.1652 103° East 410 472 12,000 1,380 Climbing FlightAware ADS-B
00:35 40.4596 -73.1476 96° East 416 479 12,200 1,620 Climbing FlightAware ADS-B
00:35 40.4592 -73.1376 93° East 421 484 12,300 1,380 Climbing FlightAware ADS-B
00:35 40.4612 -73.1041 86° East 431 496 12,600 1,260 Climbing FlightAware ADS-B
00:36 40.4658 -73.0782 77° East 438 504 12,800 1,260 Climbing FlightAware ADS-B
00:36 40.4731 -73.0560 67° East 443 510 13,000 2,040 Climbing FlightAware ADS-B
00:36 40.4924 -73.0176 57° Northeast 448 516 13,700 2,160 Climbing FlightAware ADS-B
00:36 40.5241 -72.9659 51° Northeast 454 522 14,500 2,160 Climbing FlightAware ADS-B
00:37 40.5634 -72.8862 57° Northeast 462 532 15,800 2,100 Climbing FlightAware ADS-B
00:38 40.6224 -72.7273 64° Northeast 475 547 17,900 1,920 Climbing FlightAware ADS-B
00:39 40.6523 -72.6457 64° Northeast 483 556 18,800 1,740 Climbing FlightAware ADS-B
00:39 40.6820 -72.5627 65° Northeast 489 563 19,700 1,620 Climbing FlightAware ADS-B
00:40 40.7112 -72.4814 65° Northeast 496 571 20,500 1,620 Climbing FlightAware ADS-B
00:40 40.7412 -72.3962 65° Northeast 497 572 21,400 1,560 Climbing FlightAware ADS-B
00:41 40.7855 -72.2731 65° Northeast 510 587 22,500 1,440 Climbing FlightAware ADS-B
00:41 40.8220 -72.1680 65° Northeast 516 594 23,400 1,380 Climbing FlightAware
00:42 40.8630 -72.0530 65° Northeast 523 602 24,300 1,260 Climbing FlightAware
00:43 40.9040 -71.9360 65° Northeast 531 611 25,100 1,260 Climbing FlightAware
00:44 40.9500 -71.8020 66° East 538 619 26,100 900 Climbing FlightAware
00:45 41.0070 -71.6440 64° Northeast 540 621 26,700 1,200 Climbing FlightAware
00:45 41.0335 -71.5644 66° East 545 627 27,700 2,220 Climbing FlightAware ADS-B
00:45 41.0657 -71.4706 65° Northeast 542 624 28,600 120 Climbing FlightAware ADS-B
00:46 41.0990 -71.3780 64° Northeast 544 626 27,900 1,320 Descending FlightAware
00:47 41.1430 -71.2460 66° East 532 612 30,400 2,280 Climbing FlightAware
00:47 41.1840 -71.1260 66° East 529 609 31,000 360 Climbing FlightAware
00:48 41.2350 -70.9750 66° East 528 608 31,000  Level FlightAware
00:49 41.2790 -70.8440 66° East 527 606 31,000  Level FlightAware
00:50 41.3180 -70.7280 66° East 526 605 31,000  Level FlightAware
00:51 41.3820 -70.5410 65° Northeast 526 605 31,000  Level FlightAware
00:51 41.4130 -70.4480 66° East 526 605 31,000  Level FlightAware
00:52 41.4540 -70.3240 66° East 526 605 31,000  Level FlightAware
00:53 41.4840 -70.2330 66° East 526 605 31,000  Level FlightAware
00:53 41.5240 -70.1120 66° East 526 605 31,000  Level FlightAware
00:54 41.5550 -70.0210 65° Northeast 526 605 31,000  Level FlightAware
00:55 41.6050 -69.8700 66° East 526 605 31,000  Level FlightAware
00:56 41.6850 -69.6120 67° East 31,000  Level FlightAware
01:01 41.9710 -68.7110 67° East 31,000  Level FlightAware
01:01 42.0090 -68.5890 67° East 533 613 31,000  Level FlightAware
01:02 42.0510 -68.4530 67° East 534 615 31,000  Level FlightAware
01:03 42.1040 -68.2800 68° East 536 617 31,000  Level FlightAware
01:04 42.1470 -68.1400 67° East 538 619 31,000  Level FlightAware
01:04 42.1760 -68.0460 67° East 539 620 31,000  Level FlightAware
01:05 42.2270 -67.8770 68° East 539 620 31,000  Level FlightAware
01:06 42.2720 -67.7280 68° East 539 620 31,000  Level FlightAware
01:07 42.3100 -67.6000 68° East 539 620 31,000  Level FlightAware
01:07 42.3380 -67.5050 68° East 539 620 31,000  Level FlightAware
01:08 42.3760 -67.3770 68° East 539 620 31,000  Level FlightAware
01:09 42.4050 -67.2810 68° East 539 620 31,000  Level FlightAware
01:10 42.4440 -67.1510 68° East 539 620 31,000  Level FlightAware
01:10 42.4730 -67.0550 68° East 539 620 31,000  Level FlightAware
01:11 42.5110 -66.9240 68° East 539 620 31,000  Level FlightAware
01:12 42.5400 -66.8280 68° East 539 620 31,000 420 Level FlightAware
01:12 42.6320 -66.4980 69° East 544 626 31,600 780 Climbing FlightAware
01:13 42.6650 -66.3830 69° East 548 631 32,100 600 Climbing FlightAware
01:14 42.6950 -66.2770 69° East 550 633 32,500 600 Climbing FlightAware
01:14 42.7420 -66.1120 69° East 553 636 33,000 300 Climbing FlightAware
01:15 42.7890 -65.9460 69° East 552 635 33,000  Level FlightAware
01:16 42.8200 -65.8360 69° East 551 634 33,000  Level FlightAware
01:16 42.8550 -65.7060 70° East 551 634 33,000  Level FlightAware
01:17 42.9010 -65.5400 69° East 553 636 33,000  Level FlightAware
01:18 42.9320 -65.4260 70° East 554 638 33,000  Level FlightAware
01:19 42.9640 -65.3110 69° East 554 638 33,000  Level FlightAware
01:19 43.0090 -65.1440 70° East 554 638 33,000  Level FlightAware
01:20 43.0450 -65.0130 69° East 556 640 33,000  Level FlightAware
01:21 43.0890 -64.8480 70° East 553 636 33,000  Level FlightAware
01:21 43.1240 -64.7160 70° East 553 636 33,000  Level FlightAware
01:22 43.1560 -64.5970 70° East 552 635 33,000  Level FlightAware
01:23 43.1930 -64.4550 70° East 552 635 33,000  Level FlightAware
01:23 43.2210 -64.3530 69° East 551 634 33,000  Level FlightAware
01:24 43.2560 -64.2120 71° East 551 634 33,000  Level FlightAware
01:25 43.2810 -64.1110 71° East 551 634 33,000  Level FlightAware
01:25 43.3240 -63.9500 70° East 553 636 33,000  Level FlightAware
01:26 43.3490 -63.8480 71° East 553 636 33,000  Level FlightAware
01:27 43.4060 -63.6330 70° East 551 634 33,000  Level FlightAware
01:28 43.4400 -63.4950 71° East 551 634 33,000  Level FlightAware
01:28 43.4660 -63.3940 70° East 551 634 33,000  Level FlightAware
01:29 43.5000 -63.2580 71° East 551 634 33,000  Level FlightAware
01:30 43.5250 -63.1560 71° East 551 634 33,000  Level FlightAware
01:31 43.5590 -63.0180 71° East 551 634 33,000  Level FlightAware
01:31 43.5850 -62.9160 71° East 551 634 33,000  Level FlightAware
01:32 43.6190 -62.7800 71° East 551 634 33,000  Level FlightAware
01:33 43.6440 -62.6780 71° East 551 634 33,000  Level FlightAware
01:33 43.6790 -62.5400 71° East 551 634 33,000  Level FlightAware
01:34 43.7130 -62.4010 71° East 551 634 33,000  Level FlightAware
01:35 43.7380 -62.2990 71° East 551 634 33,000  Level FlightAware
01:36 43.7810 -62.1280 71° East 551 634 33,000  Level FlightAware
01:36 43.8060 -62.0260 71° East 551 634 33,000  Level FlightAware
01:38 43.9167 -61.4667 71° East 550 633 33,000  Level Gander Center
01:44 44.1990 -60.2750 71° East 551 634 33,000  Level FlightAware
01:45 44.2370 -60.1050 73° East 551 634 33,000  Level FlightAware
01:46 44.2930 -59.8420 73° East 546 628 33,000  Level FlightAware
01:46 44.3230 -59.7000 74° East 546 628 33,000  Level FlightAware
01:47 44.3640 -59.5110 73° East 547 629 33,000  Level FlightAware
01:48 44.3880 -59.3950 74° East 548 631 33,000  Level FlightAware
01:49 44.4190 -59.2450 74° East 549 632 33,000  Level FlightAware
01:49 44.4420 -59.1330 74° East 548 631 33,000  Level FlightAware
01:50 44.4720 -58.9870 74° East 547 629 33,000  Level FlightAware
01:51 44.4990 -58.8580 74° East 545 627 33,000  Level FlightAware
01:51 44.5310 -58.6980 74° East 545 627 33,000  Level FlightAware
01:52 44.5620 -58.5450 74° East 547 629 33,000  Level FlightAware
01:53 44.5890 -58.4090 74° East 544 626 33,000  Level FlightAware
01:53 44.6170 -58.2660 75° East 544 626 33,000  Level FlightAware
01:54 44.6550 -58.0760 74° East 544 626 33,000  Level FlightAware
01:55 44.6840 -57.9290 74° East 545 627 33,000  Level FlightAware
01:56 44.7160 -57.7660 75° East 546 628 33,000  Level FlightAware
01:57 44.7330 -57.6080 81° East 551 634 33,000  Level FlightAware
01:58 44.7330 -57.4190 90° East 551 634 33,000  Level FlightAware
01:58 44.7330 -57.3090 90° East 551 634 33,000  Level FlightAware
01:59 44.7330 -57.1630 90° East 551 634 33,000  Level FlightAware
02:00 44.7330 -57.0530 90° East 551 634 33,000  Level FlightAware
02:00 44.6910 -56.8230 104° East 551 634 33,000  Level FlightAware
02:01 44.6810 -56.6400 94° East 550 633 33,000  Level FlightAware
02:02 44.6760 -56.5310 94° East 550 633 33,000  Level FlightAware
02:03 44.6700 -56.4120 94° East 550 633 33,000  Level FlightAware
02:03 44.6630 -56.2670 94° East 550 633 33,000  Level FlightAware
02:04 44.6570 -56.1570 94° East 550 633 33,000  Level FlightAware
02:05 44.6520 -56.0480 94° East 550 633 33,000  Level FlightAware
02:05 44.6440 -55.9030 94° East 550 633 33,000  Level FlightAware
02:06 44.6390 -55.7910 94° East 550 633 33,000  Level FlightAware
02:07 44.6330 -55.6780 94° East 550 633 33,000  Level FlightAware
02:07 44.6260 -55.5330 94° East 550 633 33,000  Level FlightAware
02:08 44.6210 -55.4240 94° East 550 633 33,000  Level FlightAware
02:09 44.6130 -55.2780 94° East 550 633 33,000  Level FlightAware
02:09 44.6080 -55.1690 94° East 550 633 33,000  Level FlightAware
02:10 44.6010 -55.0240 94° East 550 633 33,000  Level FlightAware
02:11 45.0000 -54.6333 94° East 540 621 33,000  Level Moncton Center
02:12 45.0333 -54.4833 72° East 540 621 33,000  Level Gander Center
02:13 45.0833 -54.2833 70° East 530 610 33,000  Level Gander Center
02:14 45.1167 -54.0667 78° East 530 610 33,000  Level Gander Center
02:15 45.1667 -53.8667 70° East 530 610 33,000  Level Gander Center
02:16 45.2333 -53.6833 63° Northeast 540 621 33,000  Level Gander Center
02:17 45.2667 -53.4833 77° East 530 610 33,000  Level Gander Center
02:18 45.3000 -53.2833 77° East 540 621 33,000  Level Gander Center
02:19 45.3500 -53.0667 72° East 540 621 33,000  Level Gander Center
02:20 45.4000 -52.8667 70° East 540 621 33,000  Level Gander Center
02:21 45.4333 -52.6667 77° East 540 621 33,000  Level Gander Center
02:22 45.4833 -52.4667 70° East 540 621 33,000  Level Gander Center
02:23 45.5167 -52.2500 78° East 530 610 33,000  Level Gander Center
02:24 46.0000 -50.0000 86° East 555 639 33,000  Level ETMS Enhanced Traffic Management System
02:24 45.5667 -52.0500 70° East 540 621 33,000  Level Gander Center
02:25 45.6000 -51.8500 86° East 540 621 33,000  Level Gander Center
02:26 45.6500 -51.6500 70° East 540 621 33,000  Level Gander Center
02:27 45.7000 -51.4333 72° East 540 621 33,000  Level Gander Center
02:28 45.7333 -51.2333 77° East 540 621 33,000  Level Gander Center
02:29 45.7833 -51.0333 70° East 550 633 33,000  Level Gander Center
02:30 45.8167 -50.8000 78° East 540 621 33,000  Level Gander Center
02:31 45.8500 -50.6000 76° East 540 621 33,000  Level Gander Center
02:32 45.9000 -50.4000 70° East 530 610 33,000  Level Gander Center
02:33 45.9333 -50.2000 76° East 530 610 33,000  Level Gander Center
02:34 45.9667 -50.0000 76° East 530 610 33,000  Level Gander Center
02:35 45.9833 -49.7833 84° East 530 610 33,000  Level Gander Center
02:36 46.0000 -49.5833 83° East 540 621 33,000  Level Gander Center
02:37 46.0167 -49.3333 84° East 550 633 33,000  Level Gander Center
02:38 46.0167 -49.1333 90° East 560 644 33,000  Level Gander Center
02:39 46.0333 -48.9000 84° East 550 633 33,000  Level Gander Center
02:40 46.0167 -48.7000 97° East 560 644 33,000  Level Gander Center
02:41 46.0333 -48.4833 84° East 560 644 33,000  Level Gander Center
02:42 46.0333 -48.2333 90° East 560 644 33,000  Level Gander Center
02:43 46.0500 -48.0167 84° East 560 644 33,000  Level Gander Center
02:44 46.0500 -47.8000 90° East 560 644 33,000  Level Gander Center
02:45 46.0500 -47.5833 90° East 560 644 33,000  Level Gander Center
02:46 46.0667 -47.3167 85° East 550 633 33,000  Level Gander Center
02:47 46.0667 -47.1000 90° East 550 633 33,000  Level Gander Center
02:49 46.0729 -46.7666 88° East  Level FlightAware Approximate
02:56 46.0889 -45.2764 89° East  Level FlightAware Approximate
02:57 46.0896 -45.0634 90° East  Level FlightAware Approximate
02:58 46.0899 -44.8505 90° East  Level FlightAware Approximate
02:59 46.0898 -44.6375 90° East  Level FlightAware Approximate
03:00 46.0893 -44.4246 90° East  Level FlightAware Approximate
03:01 46.0884 -44.2117 90° East  Level FlightAware Approximate
03:02 46.0872 -43.9987 90° East  Level FlightAware Approximate
03:03 46.0855 -43.7858 91° East  Level FlightAware Approximate
03:04 46.0834 -43.5729 91° East  Level FlightAware Approximate
03:05 46.0810 -43.3600 91° East  Level FlightAware Approximate
03:06 46.0781 -43.1471 91° East  Level FlightAware Approximate
03:07 46.0749 -42.9343 91° East  Level FlightAware Approximate
03:08 46.0712 -42.7215 91° East  Level FlightAware Approximate
03:09 46.0672 -42.5087 91° East  Level FlightAware Approximate
03:10 46.0635 -42.2961 91° East  Level FlightAware Approximate
03:11 46.0596 -42.0833 91° East  Level FlightAware Approximate
03:12 46.0552 -41.8706 92° East  Level FlightAware Approximate
03:13 46.0505 -41.6579 92° East  Level FlightAware Approximate
03:14 46.0454 -41.4452 92° East  Level FlightAware Approximate
03:15 46.0398 -41.2326 92° East  Level FlightAware Approximate
03:16 46.0339 -41.0200 92° East  Level FlightAware Approximate
03:17 46.0276 -40.8075 92° East  Level FlightAware Approximate
03:18 46.0209 -40.5950 93° East  Level FlightAware Approximate
03:19 46.0138 -40.3826 93° East  Level FlightAware Approximate
03:20 46.0063 -40.1702 93° East  Level FlightAware Approximate
03:21 46.0018 -39.9579 87° East  Level FlightAware Approximate
03:22 46.0104 -39.7457 87° East  Level FlightAware Approximate
03:23 46.0186 -39.5333 87° East  Level FlightAware Approximate
03:24 46.0264 -39.3209 87° East  Level FlightAware Approximate
03:25 46.0338 -39.1085 87° East  Level FlightAware Approximate
03:26 46.0409 -38.8960 87° East  Level FlightAware Approximate
03:27 46.0475 -38.6834 87° East  Level FlightAware Approximate
03:28 46.0538 -38.4708 87° East  Level FlightAware Approximate
03:29 46.0596 -38.2582 88° East  Level FlightAware Approximate
03:30 46.0651 -38.0455 88° East  Level FlightAware Approximate
03:31 46.0702 -37.8327 88° East  Level FlightAware Approximate
03:32 46.0748 -37.6199 88° East  Level FlightAware Approximate
03:33 46.0791 -37.4102 88° East  Level FlightAware Approximate
03:34 46.0829 -37.2004 88° East  Level FlightAware Approximate
03:35 46.0863 -36.9906 89° East  Level FlightAware Approximate
03:36 46.0894 -36.7808 89° East  Level FlightAware Approximate
03:37 46.0921 -36.5709 89° East  Level FlightAware Approximate
03:38 46.0944 -36.3611 89° East  Level FlightAware Approximate
03:39 46.0963 -36.1512 89° East  Level FlightAware Approximate
03:40 46.0979 -35.9413 89° East  Level FlightAware Approximate
03:41 46.0990 -35.7314 89° East  Level FlightAware Approximate
03:42 46.0998 -35.5215 90° East  Level FlightAware Approximate
03:43 46.1001 -35.3116 90° East  Level FlightAware Approximate
03:44 46.1001 -35.1016 90° East  Level FlightAware Approximate
03:45 46.1002 -34.8917 90° East  Level FlightAware Approximate
03:46 46.1001 -34.6818 90° East  Level FlightAware Approximate
03:47 46.0998 -34.4719 90° East  Level FlightAware Approximate
03:48 46.0990 -34.2620 90° East  Level FlightAware Approximate
03:49 46.0978 -34.0521 90° East  Level FlightAware Approximate
03:50 46.0963 -33.8422 91° East  Level FlightAware Approximate
03:51 46.0943 -33.6323 91° East  Level FlightAware Approximate
03:52 46.0920 -33.4224 91° East  Level FlightAware Approximate
03:53 46.0893 -33.2126 91° East  Level FlightAware Approximate
03:54 46.0863 -33.0027 91° East  Level FlightAware Approximate
03:55 46.0828 -32.7929 91° East  Level FlightAware Approximate
03:56 46.0789 -32.5832 91° East  Level FlightAware Approximate
03:57 46.0747 -32.3734 92° East  Level FlightAware Approximate
03:58 46.0701 -32.1637 92° East  Level FlightAware Approximate
03:59 46.0651 -31.9540 92° East  Level FlightAware Approximate
04:00 46.0597 -31.7444 92° East  Level FlightAware Approximate
04:01 46.0539 -31.5348 92° East  Level FlightAware Approximate
04:02 46.0478 -31.3253 92° East  Level FlightAware Approximate
04:03 46.0413 -31.1158 92° East  Level FlightAware Approximate
04:04 46.0344 -30.9063 93° East  Level FlightAware Approximate
04:05 46.0271 -30.6969 93° East  Level FlightAware Approximate
04:06 46.0194 -30.4876 93° East  Level FlightAware Approximate
04:07 46.0113 -30.2783 93° East  Level FlightAware Approximate
04:08 46.0029 -30.0691 93° East  Level FlightAware Approximate
04:09 45.9920 -29.8602 95° East  Level FlightAware Approximate
04:10 45.9797 -29.6514 95° East  Level FlightAware Approximate
04:11 45.9670 -29.4428 95° East  Level FlightAware Approximate
04:12 45.9540 -29.2342 95° East  Level FlightAware Approximate
04:13 45.9406 -29.0258 95° East  Level FlightAware Approximate
04:14 45.9268 -28.8174 95° East  Level FlightAware Approximate
04:15 45.9126 -28.6092 96° East  Level FlightAware Approximate
04:16 45.8981 -28.4010 96° East  Level FlightAware Approximate
04:17 45.8832 -28.1930 96° East  Level FlightAware Approximate
04:18 45.8679 -27.9851 96° East  Level FlightAware Approximate
04:19 45.8522 -27.7773 96° East  Level FlightAware Approximate
04:20 45.8361 -27.5696 96° East  Level FlightAware Approximate
04:21 45.8197 -27.3621 96° East  Level FlightAware Approximate
04:22 45.8029 -27.1546 97° East  Level FlightAware Approximate
04:23 45.7857 -26.9473 97° East  Level FlightAware Approximate
04:24 45.7681 -26.7402 97° East  Level FlightAware Approximate
04:25 45.7502 -26.5331 97° East  Level FlightAware Approximate
04:26 45.7319 -26.3262 97° East  Level FlightAware Approximate
04:27 45.7132 -26.1194 97° East  Level FlightAware Approximate
04:28 45.6941 -25.9128 97° East  Level FlightAware Approximate
04:29 45.6747 -25.7063 98° East  Level FlightAware Approximate
04:30 45.6549 -25.5000 98° East  Level FlightAware Approximate
04:31 45.6348 -25.2938 98° East  Level FlightAware Approximate
04:32 45.6142 -25.0877 98° East  Level FlightAware Approximate
04:33 45.5933 -24.8818 98° East  Level FlightAware Approximate
04:34 45.5720 -24.6761 98° East  Level FlightAware Approximate
04:35 45.5504 -24.4705 98° East  Level FlightAware Approximate
04:36 45.5284 -24.2651 99° East  Level FlightAware Approximate
04:37 45.5060 -24.0598 99° East  Level FlightAware Approximate
04:38 45.4832 -23.8547 99° East  Level FlightAware Approximate
04:39 45.4601 -23.6498 99° East  Level FlightAware Approximate
04:40 45.4366 -23.4450 99° East  Level FlightAware Approximate
04:41 45.4127 -23.2404 99° East  Level FlightAware Approximate
04:42 45.3884 -23.0360 100° East  Level FlightAware Approximate
04:43 45.3638 -22.8318 100° East  Level FlightAware Approximate
04:44 45.3388 -22.6278 100° East  Level FlightAware Approximate
04:45 45.3136 -22.4238 100° East  Level FlightAware Approximate
04:46 45.2893 -22.2198 100° East  Level FlightAware Approximate
04:47 45.2646 -22.0159 100° East  Level FlightAware Approximate
04:48 45.2396 -21.8123 100° East  Level FlightAware Approximate
04:49 45.2142 -21.6087 100° East  Level FlightAware Approximate
04:50 45.1885 -21.4054 100° East  Level FlightAware Approximate
04:51 45.1624 -21.2023 100° East  Level FlightAware Approximate
04:52 45.1359 -20.9993 100° East  Level FlightAware Approximate
04:53 45.1091 -20.7966 101° East  Level FlightAware Approximate
04:54 45.0819 -20.5940 101° East  Level FlightAware Approximate
04:55 45.0544 -20.3916 101° East  Level FlightAware Approximate
04:56 45.0265 -20.1895 101° East  Level FlightAware Approximate
04:57 44.9977 -19.9877 105° East  Level FlightAware Approximate
04:58 44.9600 -19.7889 105° East  Level FlightAware Approximate
04:59 44.9220 -19.5904 105° East  Level FlightAware Approximate
05:00 44.8837 -19.3921 105° East  Level FlightAware Approximate
05:01 44.8450 -19.1942 105° East  Level FlightAware Approximate
05:02 44.8059 -18.9965 105° East  Level FlightAware Approximate
05:03 44.7683 -18.7983 105° East  Level FlightAware Approximate
05:04 44.7307 -18.6003 105° East  Level FlightAware Approximate
05:05 44.6927 -18.4026 105° East  Level FlightAware Approximate
05:06 44.6544 -18.2051 105° East  Level FlightAware Approximate
05:07 44.6157 -18.0079 105° East  Level FlightAware Approximate
05:08 44.5767 -17.8110 105° East  Level FlightAware Approximate
05:09 44.5374 -17.6143 106° East  Level FlightAware Approximate
05:10 44.4977 -17.4179 106° East  Level FlightAware Approximate
05:11 44.4577 -17.2218 106° East  Level FlightAware Approximate
05:12 44.4173 -17.0259 106° East  Level FlightAware Approximate
05:13 44.3767 -16.8303 106° East  Level FlightAware Approximate
05:14 44.3357 -16.6350 106° East  Level FlightAware Approximate
05:15 44.2943 -16.4399 106° East  Level FlightAware Approximate
05:16 44.2526 -16.2451 107° East  Level FlightAware Approximate
05:17 44.2106 -16.0506 107° East  Level FlightAware Approximate
05:18 44.1683 -15.8564 107° East  Level FlightAware Approximate
05:19 44.1256 -15.6625 107° East  Level FlightAware Approximate
05:20 44.0826 -15.4688 107° East  Level FlightAware Approximate
05:21 44.0393 -15.2754 107° East  Level FlightAware Approximate
05:22 43.9957 -15.0823 107° East  Level FlightAware Approximate
05:23 43.9517 -14.8895 108° East  Level FlightAware Approximate
05:24 43.9074 -14.6970 108° East  Level FlightAware Approximate
05:25 43.8628 -14.5048 108° East  Level FlightAware Approximate
05:25 43.5570 -13.2290 108° East 501 577 34,000  Level FlightAware
05:26 43.8178 -14.3128 108° East  Level FlightAware Approximate
05:26 43.5300 -13.1200 109° East 501 577 34,000  Level FlightAware
05:27 43.4990 -12.9890 108° East 501 577 34,000  Level FlightAware
05:27 43.4770 -12.8960 108° East 501 577 34,000  Level FlightAware
05:28 43.4470 -12.7720 108° East 501 577 34,000  Level FlightAware
05:29 43.4510 -12.5320 89° East 504 580 34,000  Level FlightAware
05:29 43.4350 -12.3910 99° East 501 577 34,000  Level FlightAware
05:30 43.4200 -12.2520 98° East 500 575 34,000  Level FlightAware
05:31 43.4050 -12.1240 99° East 500 575 34,000 120 Level FlightAware
05:32 43.3890 -11.9850 99° East 504 580 34,200 900 Climbing FlightAware
05:32 43.3730 -11.8410 99° East 499 574 35,400 1,260 Climbing FlightAware
05:33 43.3580 -11.7100 99° East 498 573 36,000 420 Climbing FlightAware
05:34 43.3460 -11.6100 99° East 496 571 36,000  Level FlightAware
05:34 43.3300 -11.4710 99° East 493 567 36,000  Level FlightAware
05:35 43.3140 -11.3350 99° East 490 564 36,000  Level FlightAware
05:36 43.2980 -11.2040 99° East 489 563 36,000  Level FlightAware
05:36 43.2860 -11.1000 99° East 488 562 36,000  Level FlightAware
05:37 43.2650 -10.9320 100° East 488 562 36,000  Level FlightAware
05:38 43.2480 -10.7970 100° East 490 564 36,000  Level FlightAware
05:39 43.2310 -10.6620 100° East 492 566 36,000  Level FlightAware
05:39 43.2140 -10.5210 99° East 493 567 36,000  Level FlightAware
05:40 43.1990 -10.4100 100° East 494 568 36,000  Level FlightAware
05:41 43.1810 -10.2680 100° East 496 571 36,000  Level FlightAware
05:41 43.1680 -10.1630 100° East 496 571 36,000  Level FlightAware
05:42 43.1490 -10.0210 100° East 497 572 36,000  Level FlightAware
05:43 43.1340 -9.9060 100° East 499 574 36,000  Level FlightAware
05:43 43.1180 -9.7910 101° East 500 575 36,000  Level FlightAware
05:44 43.1020 -9.6730 100° East 500 575 36,000  Level FlightAware
05:45 43.0850 -9.5420 100° East 501 577 36,000  Level FlightAware
05:45 43.0660 -9.4030 101° East 501 577 36,000  Level FlightAware
05:46 43.0500 -9.2870 101° East 501 577 36,000  Level FlightAware
05:47 43.0320 -9.1600 101° East 502 578 36,000  Level FlightAware
05:48 43.0100 -9.0010 101° East 503 579 36,000  Level FlightAware
05:48 42.9950 -8.8950 101° East 503 579 36,000  Level FlightAware
05:49 42.9750 -8.7580 101° East 503 579 36,000  Level FlightAware
05:50 42.9580 -8.6400 101° East 503 579 36,000  Level FlightAware
05:50 42.9410 -8.5220 101° East 503 579 36,000  Level FlightAware
05:51 42.9240 -8.3900 100° East 503 579 36,000  Level FlightAware
05:52 42.9150 -8.2610 95° East 504 580 36,000  Level FlightAware
05:52 42.9080 -8.1310 94° East 505 581 36,000  Level FlightAware
05:53 42.9020 -8.0110 94° East 505 581 36,000  Level FlightAware
05:54 42.8920 -7.8620 95° East 506 582 36,000  Level FlightAware
05:54 42.8820 -7.7190 95° East 506 582 36,000  Level FlightAware
05:55 42.8750 -7.6180 95° East 506 582 36,000  Level FlightAware
05:56 42.8660 -7.4850 95° East 506 582 36,000  Level FlightAware
05:56 42.8570 -7.3640 96° East 506 582 36,000  Level FlightAware
05:57 42.8470 -7.2210 95° East 507 583 36,000  Level FlightAware
05:58 42.8380 -7.0940 95° East 507 583 36,000  Level FlightAware
05:58 42.8290 -6.9700 96° East 507 583 36,000  Level FlightAware
05:59 42.8190 -6.8310 96° East 507 583 36,000  Level FlightAware
06:00 42.8090 -6.7030 96° East 508 585 36,000  Level FlightAware
06:01 42.7980 -6.5610 96° East 508 585 36,000  Level FlightAware
06:01 42.7870 -6.4180 96° East 508 585 36,000  Level FlightAware
06:02 42.7770 -6.2910 96° East 509 586 36,000  Level FlightAware
06:03 42.7670 -6.1640 96° East 509 586 36,000  Level FlightAware
06:03 42.7550 -6.0170 96° East 511 588 36,000  Level FlightAware
06:04 42.7460 -5.9060 96° East 511 588 36,000  Level FlightAware
06:05 42.7340 -5.7620 96° East 512 589 36,000  Level FlightAware
06:05 42.7250 -5.6630 97° East 513 590 36,000  Level FlightAware
06:06 42.7140 -5.5250 96° East 514 592 36,000  Level FlightAware
06:07 42.7030 -5.3970 97° East 515 593 36,000  Level FlightAware
06:08 42.6880 -5.2370 97° East 515 593 36,000  Level FlightAware
06:08 42.6740 -5.0800 97° East 517 595 36,000  Level FlightAware
06:09 42.6600 -4.9250 97° East 517 595 36,000  Level FlightAware
06:10 42.6470 -4.7830 97° East 519 597 36,000  Level FlightAware
06:10 42.6350 -4.6570 97° East 520 598 36,000  Level FlightAware
06:11 42.6220 -4.5220 97° East 520 598 36,000  Level FlightAware
06:12 42.6050 -4.3330 97° East 521 600 36,000  Level FlightAware
06:13 42.5900 -4.1940 98° East 523 602 36,000  Level FlightAware
06:14 42.5750 -4.0340 97° East 524 603 36,000  Level FlightAware
06:14 42.5600 -3.8880 98° East 526 605 36,000  Level FlightAware
06:15 42.5450 -3.7440 98° East 526 605 36,000  Level FlightAware
06:16 42.5340 -3.6300 97° East 528 608 36,000  Level FlightAware
06:16 42.5190 -3.4950 99° East 529 609 36,000  Level FlightAware
06:17 42.5040 -3.3510 98° East 529 609 36,000  Level FlightAware
06:18 42.4920 -3.2330 98° East 529 609 36,000  Level FlightAware
06:18 42.4790 -3.1180 99° East 530 610 36,000  Level FlightAware
06:19 42.4550 -2.9800 103° East 529 609 36,000  Level FlightAware
06:20 42.4200 -2.8010 105° East 530 610 36,000  Level FlightAware
06:21 42.3860 -2.6210 104° East 531 611 36,000  Level FlightAware
06:22 42.3600 -2.4830 104° East 531 611 36,000  Level FlightAware
06:22 42.3410 -2.3800 104° East 530 610 36,000  Level FlightAware
06:23 42.3190 -2.2580 104° East 532 612 36,000  Level FlightAware
06:23 42.2960 -2.1380 104° East 532 612 36,000  Level FlightAware
06:24 42.2690 -2.0000 105° East 532 612 36,000  Level FlightAware
06:25 42.2340 -1.8350 106° East 531 611 36,000  Level FlightAware
06:26 42.2010 -1.6790 106° East 531 611 36,000  Level FlightAware
06:26 42.1730 -1.5520 107° East 531 611 36,000  Level FlightAware
06:27 42.1440 -1.4190 106° East 531 611 36,000  Level FlightAware
06:28 42.1140 -1.2830 107° East 531 611 36,000  Level FlightAware
06:29 42.0870 -1.1620 107° East 531 611 36,000  Level FlightAware
06:29 42.0550 -1.0170 107° East 530 610 36,000  Level FlightAware
06:30 42.0260 -0.8870 107° East 530 610 36,000  Level FlightAware
06:31 41.9910 -0.7330 107° East 529 609 36,000  Level FlightAware
06:32 41.9590 -0.5910 107° East 529 609 36,000  Level FlightAware
06:32 41.9330 -0.4780 107° East 530 610 36,000  Level FlightAware
06:33 41.9040 -0.3530 107° East 529 609 36,000  Level FlightAware
06:34 41.8720 -0.2090 107° East 528 608 36,000  Level FlightAware
06:34 41.8450 -0.0930 107° East 528 608 36,000  Level FlightAware
06:35 41.8180 0.0220 107° East 528 608 36,000  Level FlightAware
06:36 41.7780 0.1910 108° East 529 609 36,000  Level FlightAware
06:36 41.7480 0.3180 108° East 528 608 36,000  Level FlightAware
06:37 41.7140 0.4620 108° East 529 609 36,000  Level FlightAware
06:38 41.6860 0.5800 108° East 530 610 36,000  Level FlightAware
06:38 41.6570 0.6990 108° East 530 610 36,000  Level FlightAware
06:39 41.6200 0.8410 109° East 531 611 36,000  Level FlightAware
06:40 41.5830 0.9800 110° East 532 612 36,000  Level FlightAware
06:41 41.5380 1.1470 110° East 531 611 36,000  Level FlightAware
06:42 41.5110 1.2660 107° East 533 613 36,000  Level FlightAware
06:42 41.4820 1.3950 107° East 532 612 36,000  Level FlightAware
06:43 41.4550 1.5110 107° East 532 612 36,000  Level FlightAware
06:43 41.4250 1.6390 107° East 532 612 36,000  Level FlightAware
06:44 41.3980 1.7550 107° East 531 611 36,000  Level FlightAware
06:45 41.3740 1.8470 109° East 531 611 36,000  Level FlightAware
06:45 41.3460 1.9560 109° East 532 612 36,000  Level FlightAware
06:46 41.3140 2.0830 109° East 532 612 36,000  Level FlightAware
06:47 41.2810 2.2570 104° East 535 616 36,000  Level FlightAware
06:47 41.2610 2.3830 102° East 535 616 36,000  Level FlightAware
06:48 41.2380 2.5240 102° East 534 615 36,000  Level FlightAware
06:49 41.2180 2.6490 102° East 535 616 36,000  Level FlightAware
06:49 41.1960 2.7770 103° East 535 616 36,000  Level FlightAware
06:50 41.1750 2.9010 103° East 535 616 36,000  Level FlightAware
06:51 41.1500 3.0420 103° East 535 616 36,000  Level FlightAware
06:52 41.1250 3.1890 103° East 535 616 36,000  Level FlightAware
06:52 41.1030 3.3110 103° East 534 615 36,000  Level FlightAware
06:53 41.0820 3.4320 103° East 535 616 36,000  Level FlightAware
06:54 41.0560 3.5760 103° East 536 617 36,000  Level FlightAware
06:54 41.0400 3.6680 103° East 536 617 36,000  Level FlightAware
06:55 41.0130 3.8220 103° East 536 617 36,000  Level FlightAware
06:56 40.9870 3.9620 104° East 535 616 36,000  Level FlightAware
06:56 40.9630 4.0950 103° East 534 615 36,000  Level FlightAware
06:57 40.9360 4.2410 104° East 534 615 36,000  Level FlightAware
06:58 40.9130 4.3650 104° East 534 615 36,000  Level FlightAware
06:59 40.8790 4.5510 104° East 532 612 36,000  Level FlightAware
06:59 40.8590 4.6650 103° East 533 613 36,000  Level FlightAware
07:01 40.8340 4.8770 99° East 532 612 36,000  Level FlightAware
07:01 40.8240 4.9720 98° East 530 610 36,000  Level FlightAware
07:02 40.8140 5.0820 97° East 530 610 36,000  Level FlightAware
07:03 40.8020 5.2130 97° East 530 610 36,000  Level FlightAware
07:04 40.7870 5.3710 97° East 530 610 36,000  Level FlightAware
07:04 40.7780 5.4700 97° East 530 610 36,000  Level FlightAware
07:05 40.7690 5.5680 97° East 530 610 36,000  Level FlightAware
07:06 40.7570 5.6990 97° East 530 610 36,000  Level FlightAware
07:06 40.7280 5.9660 98° East 534 615 36,000  Level FlightAware
07:07 40.7200 6.0820 95° East 536 617 36,000  Level FlightAware
07:08 40.7170 6.2420 91° East 536 617 36,000  Level FlightAware
07:09 40.7120 6.4020 92° East 535 616 36,000  Level FlightAware
07:09 40.7060 6.5710 93° East 534 615 36,000  Level FlightAware
07:10 40.7000 6.7140 93° East 534 615 36,000  Level FlightAware
07:11 40.6940 6.8470 93° East 535 616 36,000  Level FlightAware
07:11 40.6880 6.9930 93° East 535 616 36,000  Level FlightAware
07:12 40.6830 7.1200 93° East 535 616 36,000  Level FlightAware
07:13 40.6770 7.2500 93° East 536 617 36,000 540 Level FlightAware
07:13 40.6700 7.3970 94° East 536 617 36,800 720 Climbing FlightAware
07:14 40.6650 7.5140 93° East 536 617 37,000 120 Climbing FlightAware
07:15 40.6590 7.6250 94° East 535 616 37,000  Level FlightAware
07:15 40.6490 7.7570 96° East 530 610 37,000  Level FlightAware
07:16 40.6260 7.8920 103° East 530 610 37,000  Level FlightAware
07:17 40.5970 8.0650 102° East 528 608 37,000  Level FlightAware
07:18 40.5770 8.1910 102° East 530 610 37,000  Level FlightAware
07:18 40.5590 8.3020 102° East 531 611 37,000  Level FlightAware
07:19 40.5350 8.4440 102° East 530 610 37,000  Level FlightAware
07:20 40.5180 8.5380 103° East 531 611 37,000  Level FlightAware
07:20 40.4990 8.6420 103° East 530 610 37,000  Level FlightAware
07:21 40.4760 8.7710 103° East 530 610 37,000  Level FlightAware
07:22 40.4460 8.9360 103° East 529 609 37,000  Level FlightAware
07:22 40.4220 9.0710 103° East 527 606 37,000  Level FlightAware
07:23 40.3960 9.2140 103° East 527 606 37,000  Level FlightAware
07:24 40.3730 9.3390 104° East 527 606 37,000  Level FlightAware
07:24 40.3500 9.4640 104° East 529 609 37,000  Level FlightAware
07:25 40.3240 9.6040 104° East 528 608 37,000  Level FlightAware
07:26 40.3000 9.7280 104° East 530 610 37,000  Level FlightAware
07:27 40.2760 9.8560 104° East 530 610 37,000  Level FlightAware
07:27 40.2500 9.9940 104° East 531 611 37,000  Level FlightAware
07:28 40.2230 10.1340 104° East 531 611 37,000  Level FlightAware
07:28 40.2050 10.2270 104° East 532 612 37,000  Level FlightAware
07:29 40.1790 10.3610 104° East 532 612 37,000  Level FlightAware
07:30 40.1530 10.4950 104° East 533 613 37,000  Level FlightAware
07:31 40.1330 10.5980 104° East 532 612 37,000  Level FlightAware
07:32 40.0990 10.7690 105° East 532 612 37,000  Level FlightAware
07:32 40.0780 10.8710 105° East 532 612 37,000  Level FlightAware
07:33 40.0550 10.9960 103° East 531 611 37,000  Level FlightAware
07:33 40.0300 11.1690 101° East 531 611 37,000  Level FlightAware
07:34 40.0150 11.2660 101° East 531 611 37,000  Level FlightAware
07:35 39.9940 11.4010 101° East 531 611 37,000  Level FlightAware
07:35 39.9740 11.5300 101° East 532 612 37,000  Level FlightAware
07:36 39.9560 11.6530 101° East 532 612 37,000  Level FlightAware
07:37 39.9400 11.7590 101° East 532 612 37,000  Level FlightAware
07:38 39.9130 11.9350 101° East 532 612 37,000  Level FlightAware
07:38 39.8930 12.0640 101° East 532 612 37,000  Level FlightAware
07:39 39.8740 12.1860 101° East 533 613 37,000  Level FlightAware
07:39 39.8550 12.3050 102° East 533 613 37,000  Level FlightAware
07:40 39.8350 12.4310 102° East 535 616 37,000  Level FlightAware
07:41 39.8150 12.5570 102° East 534 615 37,000  Level FlightAware
07:41 39.7980 12.6640 102° East 534 615 37,000  Level FlightAware
07:42 39.7780 12.7890 102° East 534 615 37,000  Level FlightAware
07:43 39.7590 12.9050 102° East 535 616 37,000  Level FlightAware
07:44 39.7380 13.0340 102° East 535 616 37,000  Level FlightAware
07:44 39.7150 13.1760 102° East 535 616 37,000  Level FlightAware
07:45 39.6970 13.2820 102° East 535 616 37,000  Level FlightAware
07:46 39.6700 13.4450 102° East 536 617 37,000  Level FlightAware
07:46 39.6490 13.5610 103° East 536 617 37,000  Level FlightAware
07:47 39.6260 13.6890 103° East 536 617 37,000  Level FlightAware
07:47 39.6030 13.8140 103° East 536 617 37,000  Level FlightAware
07:48 39.5820 13.9270 104° East 537 618 37,000  Level FlightAware
07:49 39.5440 14.1300 104° East 538 619 37,000  Level FlightAware
07:50 39.5180 14.2730 103° East 539 620 37,000  Level FlightAware
07:51 39.4910 14.4150 104° East 539 620 37,000  Level FlightAware
07:51 39.4660 14.5460 104° East 539 620 37,000  Level FlightAware
07:52 39.4480 14.6370 104° East 539 620 37,000  Level FlightAware
07:53 39.4160 14.8030 104° East 539 620 37,000  Level FlightAware
07:53 39.4010 14.8810 104° East 539 620 37,000  Level FlightAware
07:54 39.3660 15.0580 104° East 539 620 37,000  Level FlightAware
07:55 39.3260 15.2610 104° East 539 620 37,000  Level FlightAware
07:56 39.2900 15.4450 104° East 540 621 37,000  Level FlightAware
07:57 39.2680 15.5550 104° East 541 623 37,000  Level FlightAware
07:57 39.2520 15.6360 104° East 542 624 37,000  Level FlightAware
07:58 39.2240 15.7700 105° East 543 625 37,000  Level FlightAware
07:59 39.2040 15.8710 104° East 543 625 37,000  Level FlightAware
08:00 39.1660 16.0710 104° East 541 623 37,000  Level FlightAware
08:00 39.1490 16.2020 99° East 541 623 37,000  Level FlightAware
08:01 39.1330 16.3290 99° East 541 623 37,000  Level FlightAware
08:02 39.1120 16.4750 100° East 543 625 37,000  Level FlightAware
08:02 39.0980 16.5770 100° East 544 626 37,000  Level FlightAware
08:03 39.0820 16.6950 100° East 543 625 37,000  Level FlightAware
08:04 39.0650 16.8120 101° East 544 626 37,000  Level FlightAware
08:04 39.0500 16.9240 100° East 543 625 37,000 360 Level FlightAware
08:05 39.0170 17.1190 102° East 546 628 37,600 1,140 Climbing FlightAware
08:06 38.9630 17.2530 117° Southeast 536 617 38,900 900 Climbing FlightAware
08:07 38.9090 17.3790 119° Southeast 534 615 39,000 60 Climbing FlightAware
08:07 38.8640 17.4910 117° Southeast 530 610 39,000  Level FlightAware
08:08 38.8240 17.6180 112° Southeast 527 606 39,000  Level FlightAware
08:09 38.7910 17.7360 110° East 526 605 39,000  Level FlightAware
08:09 38.7680 17.8170 110° East 524 603 39,000  Level FlightAware
08:10 38.7330 17.9430 110° East 520 598 39,000  Level FlightAware
08:11 38.6960 18.0780 109° East 516 594 39,000  Level FlightAware
08:11 38.6670 18.1820 110° East 514 592 39,000  Level FlightAware
08:12 38.6330 18.3020 110° East 512 589 39,000  Level FlightAware
08:13 38.5980 18.4270 110° East 513 590 39,000  Level FlightAware
08:13 38.5690 18.5300 110° East 513 590 39,000  Level FlightAware
08:14 38.5210 18.7000 110° East 512 589 39,000  Level FlightAware
08:15 38.4950 18.7880 111° Southeast 512 589 39,000  Level FlightAware
08:16 38.4570 18.9220 110° East 512 589 39,000  Level FlightAware
08:17 38.4220 19.0450 110° East 512 589 39,000  Level FlightAware
08:17 38.3970 19.1320 110° East 512 589 39,000  Level FlightAware
08:18 38.3550 19.2760 110° East 514 592 39,000  Level FlightAware
08:19 38.3120 19.4230 110° East 515 593 39,000  Level FlightAware
08:19 38.2870 19.5080 111° Southeast 516 594 39,000  Level FlightAware
08:20 38.2560 19.6140 110° East 516 594 39,000  Level FlightAware
08:21 38.2170 19.7440 111° Southeast 519 597 39,000  Level FlightAware
08:21 38.1730 19.8960 110° East 519 597 39,000  Level FlightAware
08:23 38.1060 20.1180 111° Southeast 520 598 39,000  Level FlightAware
08:23 38.0720 20.2320 111° Southeast 522 601 39,000  Level FlightAware
08:24 38.0460 20.3220 110° East 522 601 39,000  Level FlightAware
08:25 38.0040 20.4560 112° Southeast 523 602 39,000  Level FlightAware
08:25 37.9740 20.5530 111° Southeast 523 602 39,000  Level FlightAware
08:26 37.9280 20.7040 111° Southeast 524 603 39,000  Level FlightAware
08:27 37.8700 20.8960 111° Southeast 524 603 39,000  Level FlightAware
08:28 37.8240 21.0420 112° Southeast 526 605 39,000  Level FlightAware
08:29 37.7840 21.1700 112° Southeast 524 603 39,000  Level FlightAware
08:29 37.7470 21.2890 111° Southeast 522 601 39,000  Level FlightAware
08:30 37.7100 21.4080 111° Southeast 520 598 39,000  Level FlightAware
08:31 37.6740 21.5230 112° Southeast 518 596 39,000  Level FlightAware
08:31 37.6480 21.6050 112° Southeast 516 594 39,000  Level FlightAware
08:32 37.6060 21.7360 112° Southeast 512 589 39,000  Level FlightAware
08:33 37.5720 21.8430 112° Southeast 509 586 39,000  Level FlightAware
08:34 37.5290 21.9770 112° Southeast 506 582 39,000  Level FlightAware
08:34 37.4850 22.1140 112° Southeast 504 580 39,000  Level FlightAware
08:35 37.4530 22.2140 112° Southeast 502 578 39,000  Level FlightAware
08:36 37.4150 22.3300 112° Southeast 501 577 39,000  Level FlightAware
08:36 37.3790 22.4400 112° Southeast 501 577 39,000  Level FlightAware
08:37 37.3390 22.5670 112° Southeast 502 578 39,000  Level FlightAware
08:38 37.3040 22.6720 113° Southeast 502 578 39,000  Level FlightAware
08:39 37.2760 22.7580 112° Southeast 503 579 39,000  Level FlightAware
08:39 37.2430 22.8560 113° Southeast 504 580 39,000  Level FlightAware
08:40 37.2090 22.9580 113° Southeast 504 580 39,000  Level FlightAware
08:41 37.1620 23.0990 113° Southeast 505 581 39,000  Level FlightAware
08:41 37.1190 23.2280 113° Southeast 506 582 39,000  Level FlightAware
08:42 37.0820 23.3390 113° Southeast 506 582 39,000  Level FlightAware
08:43 37.0360 23.4760 113° Southeast 505 581 39,000  Level FlightAware
08:43 36.9990 23.5840 113° Southeast 506 582 39,000  Level FlightAware
08:44 36.9660 23.6810 113° Southeast 507 583 39,000  Level FlightAware
08:45 36.9340 23.7780 112° Southeast 508 585 39,000  Level FlightAware
08:45 36.9000 23.8760 113° Southeast 507 583 39,000  Level FlightAware
08:46 36.8570 24.0020 113° Southeast 504 580 39,000  Level FlightAware
08:47 36.8030 24.1590 113° Southeast 503 579 39,000  Level FlightAware
08:48 36.7610 24.2790 114° Southeast 501 577 39,000  Level FlightAware
08:48 36.7270 24.3770 113° Southeast 502 578 39,000  Level FlightAware
08:49 36.6920 24.4770 114° Southeast 501 577 39,000  Level FlightAware
08:50 36.6380 24.6330 113° Southeast 503 579 39,000  Level FlightAware
08:51 36.5940 24.7560 114° Southeast 504 580 39,000  Level FlightAware
08:51 36.5530 24.8730 114° Southeast 506 582 39,000  Level FlightAware
08:52 36.5150 24.9790 114° Southeast 506 582 39,000  Level FlightAware
08:53 36.4800 25.0780 114° Southeast 506 582 39,000  Level FlightAware
08:53 36.4390 25.1950 114° Southeast 506 582 39,000  Level FlightAware
08:54 36.4130 25.2660 114° Southeast 506 582 39,000  Level FlightAware
08:55 36.3780 25.3640 114° Southeast 504 580 39,000  Level FlightAware
08:55 36.3420 25.4640 114° Southeast 503 579 39,000  Level FlightAware
08:56 36.3000 25.5800 114° Southeast 501 577 39,000  Level FlightAware
08:57 36.2510 25.7160 114° Southeast 500 575 39,000  Level FlightAware
08:58 36.2090 25.8310 114° Southeast 497 572 39,000  Level FlightAware
08:58 36.1720 25.9290 115° Southeast 496 571 39,000  Level FlightAware
08:59 36.1400 26.0190 114° Southeast 494 568 39,000  Level FlightAware
09:00 36.0820 26.1760 115° Southeast 493 567 39,000  Level FlightAware
09:00 36.0400 26.2890 115° Southeast 494 568 39,000  Level FlightAware
09:01 36.0080 26.3760 114° Southeast 495 570 39,000  Level FlightAware
09:02 35.9690 26.4790 115° Southeast 496 571 39,000  Level FlightAware
09:03 35.9260 26.5970 114° Southeast 496 571 39,000  Level FlightAware
09:03 35.8720 26.7410 115° Southeast 496 571 39,000  Level FlightAware
09:04 35.8360 26.8330 116° Southeast 495 570 39,000  Level FlightAware
09:05 35.7980 26.9380 114° Southeast 494 568 39,000  Level FlightAware
09:05 35.7700 27.0120 115° Southeast 494 568 39,000  Level FlightAware
09:07 35.7070 27.1770 115° Southeast 495 570 39,000  Level FlightAware
09:07 35.6780 27.2530 115° Southeast 495 570 39,000  Level FlightAware
09:08 35.6480 27.3310 115° Southeast 495 570 39,000  Level FlightAware
09:09 35.6090 27.4350 115° Southeast 495 570 39,000  Level FlightAware
09:09 35.5860 27.4960 115° Southeast 495 570 39,000  Level FlightAware
09:10 35.5450 27.6020 115° Southeast 495 570 39,000  Level FlightAware
09:11 35.5160 27.6800 115° Southeast 495 570 39,000  Level FlightAware
09:11 35.4840 27.7630 115° Southeast 495 570 39,000  Level FlightAware
09:12 35.3730 28.0420 116° Southeast 495 570 39,000  Level FlightAware
09:13 35.3310 28.1480 116° Southeast 494 568 39,000  Level FlightAware
09:13 35.3010 28.2230 116° Southeast 494 568 39,000  Level FlightAware
09:14 35.2660 28.3140 115° Southeast 493 567 39,000  Level FlightAware
09:15 35.2230 28.4220 116° Southeast 493 567 39,000  Level FlightAware
09:15 35.1720 28.5520 116° Southeast 492 566 39,000  Level FlightAware
09:16 35.1350 28.6420 117° Southeast 492 566 39,000  Level FlightAware
09:17 35.0850 28.7720 115° Southeast 491 565 39,000  Level FlightAware
09:18 35.0450 28.8720 116° Southeast 490 564 39,000  Level FlightAware
09:18 35.0000 28.9810 117° Southeast 486 559 39,000  Level FlightAware
09:19 34.9680 29.0650 115° Southeast 486 559 39,000  Level FlightAware
09:20 34.9090 29.2050 117° Southeast 488 562 39,000  Level FlightAware
09:21 34.8560 29.3360 116° Southeast 484 557 39,000  Level FlightAware
09:21 34.8140 29.4390 116° Southeast 484 557 39,000  Level FlightAware
09:22 34.7850 29.5100 116° Southeast 484 557 39,000  Level FlightAware
09:23 34.7190 29.6730 116° Southeast 484 557 39,000  Level FlightAware
09:24 34.6850 29.7630 115° Southeast 484 557 39,000  Level FlightAware
09:24 34.6470 29.8460 119° Southeast 485 558 39,000  Level FlightAware
09:25 34.6130 29.9340 115° Southeast 485 558 39,000  Level FlightAware
09:26 34.5480 30.0740 119° Southeast 485 558 39,000  Level FlightAware
09:26 34.5020 30.1700 120° Southeast 483 556 39,000  Level FlightAware
09:27 34.4490 30.2800 120° Southeast 483 556 39,000  Level FlightAware
09:28 34.3900 30.4020 120° Southeast 483 556 39,000  Level FlightAware
09:29 34.3520 30.4830 120° Southeast 483 556 39,000  Level FlightAware
09:29 34.3190 30.5510 120° Southeast 483 556 39,000  Level FlightAware
09:30 34.2780 30.6350 121° Southeast 482 555 39,000  Level FlightAware
09:31 34.2320 30.7300 120° Southeast 482 555 39,000  Level FlightAware
09:32 34.1640 30.8700 120° Southeast 483 556 39,000  Level FlightAware
09:32 34.1120 30.9770 120° Southeast 484 557 39,000  Level FlightAware
09:33 34.0670 31.0700 120° Southeast 484 557 39,000  Level FlightAware
09:34 34.0160 31.1720 121° Southeast 483 556 39,000  Level FlightAware
09:34 33.9650 31.2760 121° Southeast 483 556 39,000  Level FlightAware
09:35 33.9190 31.3710 120° Southeast 479 551 39,000  Level FlightAware
09:36 33.8850 31.4380 121° Southeast 484 557 39,000  Level FlightAware
09:36 33.8350 31.5390 121° Southeast 483 556 39,000  Level FlightAware
09:37 33.7800 31.6480 121° Southeast 484 557 39,000  Level FlightAware
09:38 33.7210 31.7680 121° Southeast 485 558 39,000  Level FlightAware
09:39 33.6530 31.9020 121° Southeast 486 559 39,000  Level FlightAware
09:40 33.6000 32.0080 121° Southeast 485 558 39,000 -840 Level FlightAware
09:40 33.5460 32.1170 121° Southeast 492 566 37,800 -1,380 Descending FlightAware
09:41 33.4990 32.2080 122° Southeast 497 572 36,800 -960 Descending FlightAware
09:42 33.4470 32.3120 121° Southeast 498 573 36,300 -1,440 Descending FlightAware
09:43 33.3970 32.4090 122° Southeast 502 578 34,800 -1,560 Descending FlightAware
09:44 33.2990 32.6030 121° Southeast 494 568 33,500 -1,020 Descending FlightAware
09:44 33.2610 32.6770 122° Southeast 491 565 33,100 -780 Descending FlightAware
09:45 33.2000 32.7950 122° Southeast 490 564 32,400 -840 Descending FlightAware
09:46 33.1520 32.8890 121° Southeast 487 560 31,700 -1,740 Descending FlightAware
09:47 33.0970 32.9970 121° Southeast 473 544 29,900 -2,640 Descending FlightAware
09:47 33.0420 33.1010 122° Southeast 454 522 28,200 -2,460 Descending FlightAware
09:48 32.9950 33.1910 122° Southeast 440 506 26,600 -2,100 Descending FlightAware
09:49 32.9380 33.3010 122° Southeast 446 513 24,900 -1,800 Descending FlightAware
09:50 32.9080 33.3590 122° Southeast 434 499 23,900 -1,680 Descending FlightAware
09:50 32.8690 33.4350 121° Southeast 420 483 22,700 -2,280 Descending FlightAware
09:51 32.8050 33.5540 123° Southeast 430 495 20,700 -2,220 Descending FlightAware
09:52 32.7620 33.6370 122° Southeast 418 481 19,400 -1,920 Descending FlightAware
09:53 32.7180 33.7210 122° Southeast 402 463 18,000 -1,920 Descending FlightAware
09:53 32.6790 33.7950 122° Southeast 389 448 16,800 -1,860 Descending FlightAware
09:54 32.6520 33.8460 122° Southeast 379 436 15,900 -1,080 Descending FlightAware
09:55 32.6050 33.9350 122° Southeast 374 430 15,300 -1,740 Descending FlightAware
09:55 32.5580 34.0230 122° Southeast 384 442 13,000 -2,400 Descending FlightAware
09:56 32.5160 34.1030 122° Southeast 367 422 11,700 -1,560 Descending FlightAware
09:57 32.4770 34.1690 125° Southeast 346 398 10,800 -900 Descending FlightAware
09:57 32.4410 34.2130 134° Southeast 318 366 10,600 -480 Descending FlightAware
09:58 32.4040 34.2570 135° Southeast 291 335 10,300 -600 Descending FlightAware
09:58 32.3830 34.2810 136° Southeast 280 322 10,000 -360 Descending FlightAware
09:59 32.3630 34.3050 135° Southeast 280 322 10,000  Level FlightAware
09:59 32.3350 34.3380 135° Southeast 280 322 10,000  Level FlightAware
10:00 32.3250 34.3490 137° Southeast 280 322 10,000  Level FlightAware
10:00 32.3050 34.3730 135° Southeast 280 322 10,000  Level FlightAware
10:00 32.2960 34.3840 134° Southeast 280 322 10,000 -1,620 Level FlightAware
10:03 32.0909 34.6875 125° Southeast  Level FlightAware Approximate
10:03 32.1620 34.5950 125° Southeast 273 314 5,400  Level FlightAware
10:03 32.1370 34.6370 125° Southeast 274 315 5,200 -300 Descending FlightAware
10:04 32.1260 34.6580 122° Southeast 274 315 5,200  Level FlightAware
10:04 32.1100 34.6870 123° Southeast 275 316 5,200  Level FlightAware
10:05 32.0900 34.7240 123° Southeast 277 319 5,200  Level FlightAware
10:05 32.0650 34.7680 124° Southeast 247 284 5,200 -120 Level FlightAware
10:06 32.0510 34.7860 133° Southeast 245 282 5,100 -300 Descending FlightAware
10:06 32.0250 34.8150 137° Southeast 242 278 4,900 -480 Descending FlightAware
10:07 32.0040 34.8390 136° Southeast 233 268 4,600 -1,200 Descending FlightAware
10:07 31.9870 34.8590 135° Southeast 233 268 4,000 -1,980 Descending FlightAware
10:07 31.9730 34.8890 119° Southeast 224 258 3,100 -1,020 Descending FlightAware
10:08 31.9700 34.9170 97° East 224 258 3,100  Level FlightAware
10:10 32.0210 34.9120 355° North 700 -1,140 Descending FlightAware
10:11 32.0170 34.8860 260° West 145 167 -1,440 Descending FlightAware
10:11 32.0150 34.8730 260° West 43 49  Level FlightAware
10:12 32.0140 34.8680 257° West 33 38  Level FlightAware
10:12 32.0130 34.8660 239° Southwest 19 22  Level FlightAware